Regional Weather Roundup
Issued by NWS

Home | Current Version | Previous Version | Graphics & Text | Print | Product List | Glossary On
Versions: 1 2 3 4 5 6 7 8 9 10 11 12 13 14 15 16 17 18 19 20 21 22 23 24 25 26 27 28 29 30 31 32 33 34 35 36 37 38 39 40 41 42 43 44 45 46 47 48 49 50
000
ASUS44 KMEG 230810
RWRTN
TENNESSEE HOURLY STATE WEATHER ROUNDUP
NATIONAL WEATHER SERVICE MEMPHIS TN
200 AM CST MON JAN 23 2017

TNZ002-004-019-021-049-052-054-088>092-230900-
WEST TENNESSEE

CITY           SKY/WX    TMP DP  RH WIND       PRES   REMARKS
MEMPHIS INTL   CLOUDY    50  43  77 NW17G25   29.61R
NWS MEMPHIS      N/A     50 N/A N/A MISG        N/A
JACKSON        CLOUDY    50  46  86 NW17G26   29.54R
DYERSBURG      CLEAR     46  37  71 N16G24    29.59R
UNION CITY     MOCLDY    45  45 100 N17       29.56R
PARIS          CLOUDY    46  43  87 N16G22    29.51R
HUNTINGDON     CLOUDY    50  46  87 N13G20    29.50R
$$

TNZ008-025-027-028-033-062-065-066-230900-
NORTH MIDDLE TENNESSEE

CITY           SKY/WX    TMP DP  RH WIND       PRES   REMARKS
NASHVILLE      CLOUDY    56  51  84 N15G22    29.33R
PORTLAND       CLOUDY    55  50  82 N14G23    29.33R
CLARKSVILLE    CLOUDY    54  47  77 N22G33    29.43R
SMYRNA         CLOUDY    56  52  86 NW21      29.31R
GALLATIN       CLOUDY    57  52  82 NW12G22   29.34R
CROSSVILLE     LGT RAIN  50  48  93 NW6       29.23R FOG
$$

TNZ061-075-076-078-094-096-097-230900-
SOUTH MIDDLE TENNESSEE

CITY           SKY/WX    TMP DP  RH WIND       PRES   REMARKS
TULLAHOMA      CLOUDY    54  52  94 N13       29.27R
WINCHESTER     CLOUDY    54  52  94 N7        29.25R
MCMINNVILLE    CLOUDY    54  54 100 N12       29.24R
COLUMBIA       CLOUDY   N/A N/A N/A NW8       29.33R
SHELBYVILLE    CLOUDY    55  55 100 N20       29.29R
$$

TNZ017-018-042-046-047-230900-
NORTHEAST TENNESSEE

CITY           SKY/WX    TMP DP  RH WIND       PRES   REMARKS
TRI CITIES     CLOUDY    52  48  86 NE7       29.21R
ELIZABETHTON   LGT RAIN  52  50  93 CALM      29.20S
$$

TNZ012-013-036-069-073-074-230900-
CENTRAL EAST TENNESSEE

CITY           SKY/WX    TMP DP  RH WIND       PRES   REMARKS
KNOXVILLE      LGT RAIN  53  49  86 SW8       29.20R
OAK RIDGE      CLOUDY    55  51  86 VRB3      29.21R
GATLINBURG     CLOUDY    50  48  93 CALM      29.18S
MORRISTOWN     CLOUDY    50  50 100 NE8       29.18F
JACKSBORO      MOCLDY    52  50  93 E7        29.23R
$$

TNZ083-085-099-230900-
SOUTHEAST TENNESSEE

CITY           SKY/WX    TMP DP  RH WIND       PRES   REMARKS
CHATTANOOGA    CLOUDY    51  45  79 CALM      29.23R
$$

SKY/WX REPORTED AS FAIR MEANS FEW OR NO CLOUDS BELOW
12 THOUSAND FEET.





USA.gov is the U.S. government's official web portal to all federal, state and local government web resources and services.